Miscellaneous Local Product
Issued by NWS North Platte, NE

Home | Current Version | Previous Version | Text Only | Print | Product List | Glossary On
Versions: 1 2 3 4 5 6 7 8 9 10 11 12 13 14 15 16 17 18 19 20 21 22 23 24 25 26 27 28 29 30 31 32 33 34 35 36 37 38 39 40 41 42 43 44 45 46 47 48 49 50
579
AXUS43 KLBF 061710
MISLBF


WESTERN AND NORTH CENTRAL NEBRASKA HOURLY WEATHER ROUNDUP
NATIONAL WEATHER SERVICE NORTH PLATTE NE
1100 AM CST SAT FEB 06 2016

NOTE: "FAIR" INDICATES FEW OR NO CLOUDS BELOW 12,000 FEET WITH NO
SIGNIFICANT WEATHER AND/OR OBSTRUCTIONS TO VISIBILITY.

NOTE: STATIONS NOT REPORTING VARIABLES SUCH AS SKY/WEATHER OR
PRESSURE ARE PROVIDED BY THE NEBRASKA DEPARTMENT OF
ROADS...RAWS...AND APRS NETWORKS...AND ARE NOT UNDER
NATIONAL WEATHER SERVICE QUALITY CONTROL.

...OBSERVATIONS IN AND NEAR THE EASTERN PANHANDLE OF NEBRASKA...

CITY           SKY/WX    TMP DP  RH WIND       PRES   REMARKS
PINE RIDGE     CLOUDY    34  21  59 W12       30.08F WCI  25
CHADRON        CLOUDY    34  22  61 SW7       30.11S WCI  28
ALLIANCE       CLOUDY    30  22  72 W16       30.10S WCI  19
SIDNEY         CLOUDY    32  22  66 W14       30.16S WCI  22
CRESCENT LAKE    N/A     38  24  57 W14         N/A  WCI  30
$$

...OBSERVATIONS IN NORTH CENTRAL NEBRASKA...

CITY           SKY/WX    TMP DP  RH WIND       PRES   REMARKS
VALENTINE      SUNNY     39  24  55 W16       30.05F WCI  30
THEDFORD       SUNNY     40  25  56 W13       30.10S WCI  32
AINSWORTH      SUNNY     40  26  55 W12       30.04F WCI  34
O`NEILL        SUNNY     33  22  63 SW10      30.08S WCI  25
ORD            SUNNY     28  20  71 SW6       30.12F WCI  22
BROKEN BOW     SUNNY     29  21  72 SW8       30.12F WCI  21
VALENTINE NWR    N/A     38  22  52 W13         N/A  WCI  30
BUTTE            N/A     34  27  76 W12G20      N/A  WCI  25
HALSEY           N/A     41  22  47 W7          N/A
CHAMBERS         N/A     34  20  57 S9          N/A  WCI  27
EWING            N/A     31  23  71 SW9         N/A  WCI  23
$$

...OBSERVATIONS IN SOUTHWEST NEBRASKA AND FAR NORTHEAST COLORADO...

CITY           SKY/WX    TMP DP  RH WIND       PRES   REMARKS
WRAY           FAIR      29  14  53 W8        30.22S WCI  21
HOLYOKE        FAIR      34  19  55 W12       30.19S WCI  25
IMPERIAL       CLOUDY    27  15  61 W12       30.20S WCI  17
OGALLALA       CLOUDY    21  11  64 W9        30.18F WCI  11
NORTH PLATTE   CLOUDY    26  17  68 W10       30.17F WCI  16
MCCOOK         CLOUDY    24  13  62 W10       30.23S WCI  14
LEXINGTON      CLOUDY    24  19  83 W3        30.19S
PAXTON           N/A     23  17  78 W7          N/A  WCI  15
STAPLETON        N/A     30  23  74 CALM        N/A
GOTHENBURG       N/A     29  18  63 NW3         N/A
CALLAWAY         N/A     28  20  72 W12         N/A  WCI  18
$$

...OBSERVATIONS IN CENTRAL LINCOLN COUNTY AREA...

CITY           SKY/WX    TMP DP  RH WIND       PRES   REMARKS
N.P. AIRPORT   CLOUDY    26  17  68 W10       30.17F WCI  16
N.P. DOWNTOWN    N/A     28  19  69 SW3G12      N/A
N.P. SOUTHEAST   N/A     28  19  67 W6          N/A  WCI  22
N.P. HILLCREST   N/A     24  18  77 W10         N/A  WCI  14
$$

...SOME OBSERVATIONS FROM AROUND THE REGION...

CITY           SKY/WX    TMP DP  RH WIND       PRES   REMARKS
DENVER         CLOUDY    35  17  47 SW17      30.17F WCI  25
LARAMIE        CLOUDY    31  15  52 SW16      30.22S WCI  20
CHEYENNE       CLOUDY    35  18  49 W30G41    30.11F WCI  22
SCOTTSBLUFF    CLOUDY    33  19  56 CALM      30.14F
RAPID CITY     CLOUDY    40  28  62 SE3       29.97F
BISMARCK       CLOUDY    44  26  49 SW7       29.79F
PIERRE         SUNNY     39  23  52 SW14      29.93F WCI  31
WINNER         FAIR      39  24  55 SW13      30.00F WCI  31
SIOUX FALLS    PTSUNNY   27  22  81 S13       30.05F WCI  16
OMAHA          MOSUNNY   31  28  89 SW7       30.23R WCI  24
GRAND ISLAND   SUNNY     28  18  66 SW12      30.19F WCI  18
KANSAS CITY    MOSUNNY   41  31  67 W5        30.30S
WICHITA        SUNNY     43  30  60 NW6       30.36R
OKLAHOMA CITY  MOSUNNY   43  30  60 NW9       30.40R
LIBERAL        SUNNY     39  25  56 SW6       30.35S WCI  35
HAYS           SUNNY     30  14  51 SW8       30.30S WCI  23
GOODLAND       SUNNY     32  16  51 SW13      30.23S WCI  22
$$




USA.gov is the U.S. government's official web portal to all federal, state and local government web resources and services.